{"data":{"norad_id":66488,"epoch":"2026-05-24T18:01:52.174848Z","epoch_age_seconds":103462,"freshness":"FRESH","line1":"1 66488U 25263D   26144.75129832  .00006601  00000+0  24915-3 0  9990","line2":"2 66488  43.0004 280.9594 0001311 268.2421  91.8280 15.27582820 30532","mean_motion":15.2758282,"eccentricity":0.0001311,"inclination_deg":43.0004,"raan_deg":280.9594,"arg_perigee_deg":268.2421,"mean_anomaly_deg":91.828,"bstar":0.00024915,"rev_number":3053,"period_min":94.266574692166,"perigee_km":482.14115156798,"apogee_km":483.94015234832,"semimajor_km":6861.1776519582,"source":"CELESTRAK","updated_at":"2026-05-25T13:38:21.242261Z"}}